sat.trackr.live / text

‹ back to catalog

STARLINK-32075

NORAD 60345 · 2024-136S

PAYLOAD ACTIVE UNKNOWN

§ Identity

Operator
Country
US
Launch date
2024-08-02
Launch site
AFETR
Launch vehicle
Mass (kg)
RCS (m²)

Purposes: comms

External: N2YO · Heavens-Above · Gunter

§ Orbital elements

Epoch: 2026-09-21T22:35:46.292064Z

Period
93.85 min
Inclination
53.1579°
Eccentricity
0.0000945
Mean motion
15.34385422 rev/d
Perigee alt
462.1 km
Apogee alt
463.4 km
Semi-major
6,840.9 km
B*
-2.8680e-5
RAAN
243.2363°
Arg perigee
80.9714°
Mean anomaly
279.1396°
Rev number
11,972

§ Raw data

STARLINK-320751 60345U 24136S   26264.94150801 -.00001344  00000+0 -28680-4 0  99932 60345  53.1579 243.2363 0000945  80.9714 279.1396 15.34385422119724

JSON: /api/v1/satellites/60345 · /tle

For live sub-satellite position, see the globe view (requires WebGL).

§ Visibility from observer

Set your observer location to see the next 7 days of passes ≥ 10°. The values pass through the URL so the page stays shareable.

No JS? Fill the form by hand. The geolocation button needs JavaScript.